Location: ?????
(55.6500°N, 37.2500°E)
Time: 08:09:12
(UTC+00:00)

Cosmos 1371 Rocket - Pass Details

Date: 19 May 2025
Orbit: 750 x 786 km, 74.0° (Epoch: 23 June)

Event Time Altitude Azimuth Distance (km) Brightness Sun altitude
Rises 20:52:57 0° 332° (NNW) 3,289 8.7 -14.0°
Reaches altitude 10° 20:55:23 10° 336° (NNW) 2,359 7.8 -14.1°
Maximum altitude 21:00:43 63° 57° (ENE) 883 4.4 -14.2°
Enters shadow 21:05:17 14° 137° (SE) 2,073 5.8 -14.2°
